Voltar ao catálogo

SL-14 R/B

AtivoPO
NORAD 18340·ROCKET BODY·🇷🇺 Russia

Lançado Sep 7, 1987 de Plesetsk Cosmodrome

Loading…

Próximas Passagens (próximas 24 horas)

TLE

AtualizadoSource: Space-Track

Época: Sep 14, 2026, 07:04 UTC

1 18340U 87074G   26257.29500998  .00000020  00000-0  59607-4 0  9999
2 18340  82.5734  20.3082 0039731   9.8314  15.8830 12.55580311788199

Acompanhe SL-14 R/B em tempo real com AllMySat

Download on the App Store